[[{"header":{"parameterUnit":"m.s-1","parameterCategory":1,"la1":30.2991,"la2":30.254,"lo1":-89.0895,"lo2":-89.0444,"dy":0.0017,"dx":0.0017,"nx":28,"ny":28,"refTime":"2024-04-09T09:00:00:Z","depth":0,"parameterNumber":2,"parameterNumberName":"U-component_of_WINDS"},"data":[0,0,0,0,0,0,0,0,0,0,0,0,0,0,0,0,0,0,0,0,0,0,0,0,0,0,0,0,0,0,0,0,0,0,0,0,0,0,0,0,0,0,0,0,0,0,0,0,0,0,0,0,0,0,0,0,0,0,-5.3663,-5.3665,0,-5.3813,-5.3815,-5.3816,-5.3832,-5.3831,-5.3829,-5.3828,-5.3979,-5.3984,-5.3989,0,0,0,0,0,0,0,0,0,0,0,0,0,-5.339,-5.3395,-5.3663,-5.3665,-5.3667,-5.3813,-5.3815,-5.3817,-5.3833,-5.3831,-5.3829,-5.3827,-5.3977,-5.3983,-5.399,0,0,0,0,0,0,0,0,0,0,0,0,0,-5.3521,-5.3396,-5.3663,-5.3692,-5.3696,-5.3812,-5.3815,-5.3817,-5.3833,-5.3831,-5.3828,-5.3826,-5.3975,-5.3983,-5.3991,-5.4087,0,0,-5.4016,-5.4019,0,0,0,0,0,0,0,0,-5.3513,-5.3531,-5.3686,-5.369,-5.3695,-5.3802,-5.3774,-5.3907,-5.3834,-5.3781,-5.3828,-5.3825,-5.3922,-5.3934,-5.3967,-5.4094,-5.41,-5.4016,-5.4021,-5.4025,-5.4027,0,0,0,0,0,0,0,-5.3504,-5.3524,-5.3722,-5.3688,-5.3694,-5.3698,-5.3714,-5.3799,-5.3862,-5.3785,-5.3787,-5.3805,-5.3924,-5.3959,-5.3971,-5.4102,-5.4016,-5.4023,-5.4028,-5.4032,-5.4315,-5.4318,0,0,0,0,0,0,-5.349,-5.3517,-5.3717,-5.3727,-5.3597,-5.3705,-5.3723,-5.377,-5.3861,-5.3873,-5.3806,-5.3805,-5.3946,-5.3961,-5.3976,-5.4093,-5.4025,-5.4032,-5.4037,-5.4313,-5.4316,-5.4319,0,0,0,0,0,0,-5.3484,-5.3508,-5.3711,-5.3622,-5.3649,-5.3712,-5.3765,-5.3774,-5.3809,-5.3877,-5.3888,-5.3831,-5.3945,-5.3964,-5.4059,-5.4099,-5.4036,-5.4044,-5.431,-5.4314,-5.4318,-5.4329,0,0,0,0,0,0,-5.3476,-5.3505,-5.3542,-5.3623,-5.3653,-5.3792,-5.3767,-5.3778,-5.3824,-5.3823,-5.3903,-5.3914,-5.3945,-5.4047,-5.4067,-5.4109,-5.405,-5.4306,-5.4312,-5.4316,-5.4325,-5.4332,-5.4339,0,0,0,0,0,-5.3466,-5.3539,-5.3544,-5.3568,-5.3701,-5.3794,-5.3812,-5.3846,-5.3827,-5.3864,-5.3908,-5.3912,-5.4092,-5.4056,-5.4079,-5.4124,-5.4304,-5.431,-5.4316,-5.4322,-5.4331,-5.4339,0,0,0,0,0,0,-5.346,-5.355,-5.3557,-5.3658,-5.3718,-5.3797,-5.3845,-5.3855,-5.3921,-5.3917,-5.3957,-5.3975,-5.4068,-5.4106,-5.4065,-5.4222,-5.4196,-5.4207,-5.4193,-5.4202,-5.4209,-5.4196,-5.4057,0,0,0,0,0,-5.3471,-5.3539,-5.3615,-5.3696,-5.3727,-5.3781,-5.3823,-5.3844,-5.3908,-5.3934,-5.3985,-5.4046,-5.4117,-5.4162,-5.4231,-5.4332,-5.4349,-5.4374,-5.4381,-5.4387,-5.4394,-5.445,-5.4462,-5.4339,-5.4339,-5.4338,0,0,-5.3492,-5.355,-5.3591,-5.3697,-5.3746,-5.3816,-5.3802,-5.3876,-5.3928,-5.3945,-5.4037,-5.4077,-5.4148,-5.4247,-5.4292,-5.4281,-5.4433,-5.4394,-5.4398,-5.4403,-5.4458,-5.4469,-5.448,-5.4343,-5.4342,-5.4341,0,0,-5.3567,-5.3619,-5.3692,-5.3743,-5.3819,-5.3855,-5.3873,-5.3951,-5.3978,-5.4072,-5.4085,-5.4148,-5.4269,-5.4319,-5.4361,-5.4458,-5.4463,-5.448,-5.4515,-5.4569,-5.4579,-5.4587,-5.462,-5.4632,-5.4488,-5.4488,-5.4488,0,-5.3584,-5.369,-5.3729,-5.3803,-5.3849,-5.3869,-5.3944,-5.3991,-5.4085,-5.4116,-5.4103,-5.4256,-5.4305,-5.4415,-5.4439,-5.4473,-5.4494,-5.4469,-5.4574,-5.4584,-5.4592,-5.4624,-5.4637,-5.449,-5.4489,-5.4489,-5.4489,0,-5.3707,-5.3781,-5.3831,-5.3922,-5.3975,-5.4049,-5.4098,-5.4146,-5.4164,-5.4202,-5.4297,-5.4358,-5.4439,-5.4468,-5.4486,-5.4581,-5.4572,-5.4566,-5.454,-5.4605,-5.4635,-5.4648,-5.4491,-5.4491,-5.4491,-5.449,0,0,-5.3778,-5.3892,-5.3909,-5.3951,-5.4038,-5.4095,-5.4171,-5.4252,-5.4291,-5.4357,-5.442,-5.4524,-5.452,-5.4567,-5.4591,-5.4639,-5.4711,-5.4628,-5.4631,-5.4639,-5.4818,-5.4819,-5.4833,-5.4717,-5.472,-5.4722,-5.4811,0,-5.3861,-5.3996,-5.4034,-5.4147,-5.4216,-5.4238,-5.4304,-5.4364,-5.4402,-5.4465,-5.4507,-5.4579,-5.4569,-5.4598,-5.4647,-5.4692,-5.4747,-5.4686,-5.4775,-5.4777,-5.4752,-5.4849,-5.485,-5.4931,-5.4824,-5.4826,-5.4827,0,-5.3975,-5.4043,-5.4163,-5.4242,-5.4272,-5.4331,-5.4408,-5.4469,-5.4538,-5.4562,-5.4616,-5.4637,-5.4717,-5.469,-5.48,-5.4758,-5.4797,-5.4825,-5.4829,-5.4836,-5.4803,-5.4855,-5.4958,-5.4969,-5.4847,-5.4845,-5.4844,0,-5.4011,-5.4134,-5.4222,-5.4257,-5.4352,-5.4392,-5.4434,-5.4501,-5.4547,-5.4616,-5.4646,-5.4723,-5.4764,-5.4822,-5.4863,-5.484,-5.4969,-5.4946,-5.499,-5.4989,-5.5013,-5.501,-5.5121,-5.5044,-5.5044,-5.5043,-5.5043,0,-5.4098,-5.417,-5.424,-5.4293,-5.4375,-5.4419,-5.4499,-5.4541,-5.4602,-5.4664,-5.4689,-5.4746,-5.4799,-5.4863,-5.4897,-5.4982,-5.5001,-5.5022,-5.5029,-5.5018,-5.5015,-5.5041,-5.5035,-5.5047,-5.5046,-5.5045,-5.5045,0,-5.4151,-5.4201,-5.4298,-5.438,-5.4403,-5.4459,-5.453,-5.4583,-5.4623,-5.4702,-5.4723,-5.4785,-5.4863,-5.4911,-5.501,-5.5032,-5.5125,-5.5132,-5.5102,-5.5104,-5.5145,-5.5139,-5.5274,-5.5293,-5.5205,-5.5206,-5.5207,0,-5.4201,-5.4257,-5.4346,-5.439,-5.4432,-5.4502,-5.455,-5.4597,-5.4646,-5.473,-5.4773,-5.4853,-5.4918,-5.5042,-5.5096,-5.5172,-5.5179,-5.5221,-5.519,-5.5177,-5.5177,-5.5171,-5.5177,-5.5225,-5.5225,-5.5226,-5.5227,0,-5.4284,-5.4306,-5.4375,-5.4452,-5.4509,-5.4572,-5.4635,-5.467,-5.4727,-5.4781,-5.4861,-5.4913,-5.5014,-5.5093,-5.5174,-5.5216,-5.5231,-5.5237,-5.525,-5.5237,-5.5217,-5.5226,-5.5112,-5.5232,-5.5232,-5.5231,-5.5231,-5.5231,-5.4335,-5.4386,-5.4457,-5.4533,-5.4586,-5.4644,-5.4698,-5.4746,-5.4814,-5.49,-5.4925,-5.5008,-5.5078,-5.5188,-5.5233,-5.5299,-5.5293,-5.5313,-5.5318,-5.5322,-5.5321,-5.5209,-5.5315,-5.5315,-5.5314,-5.5314,-5.5314,0,-5.4417,-5.4465,-5.4534,-5.4622,-5.4682,-5.4693,-5.4764,-5.4812,-5.4886,-5.495,-5.5015,-5.5108,-5.5185,-5.5246,-5.5326,-5.5367,-5.5375,-5.5386,-5.5381,-5.5391,-5.5323,-5.5302,-5.5377,-5.5377,-5.5377,-5.5377,-5.5377,-5.5377,-5.4467,-5.4553,-5.4585,-5.4698,-5.4745,-5.4828,-5.4867,-5.4922,-5.4973,-5.5075,-5.514,-5.518,-5.5243,-5.5328,-5.5399,-5.5415,-5.5442,-5.5451,-5.5468,-5.5403,-5.5395,-5.5389,-5.5369,-5.5457,-5.5457,-5.5529,-5.553,-5.553]},{"header":{"parameterUnit":"m.s-1","parameterCategory":1,"la1":30.2991,"la2":30.254,"lo1":-89.0895,"lo2":-89.0444,"dy":0.0017,"dx":0.0017,"nx":28,"ny":28,"refTime":"2024-04-09T09:00:00:Z","depth":0,"parameterNumber":3,"parameterNumberName":"V-component_of_WINDS"},"data":[0,0,0,0,0,0,0,0,0,0,0,0,0,0,0,0,0,0,0,0,0,0,0,0,0,0,0,0,0,0,0,0,0,0,0,0,0,0,0,0,0,0,0,0,0,0,0,0,0,0,0,0,0,0,0,0,0,0,4.2423,4.2424,0,4.2474,4.2474,4.2475,4.2453,4.2452,4.2451,4.2449,4.2501,4.2503,4.2506,0,0,0,0,0,0,0,0,0,0,0,0,0,4.2309,4.2311,4.2423,4.2424,4.2424,4.2474,4.2474,4.2475,4.2453,4.2452,4.245,4.2449,4.25,4.2503,4.2506,0,0,0,0,0,0,0,0,0,0,0,0,0,4.2359,4.2312,4.2423,4.2419,4.242,4.2473,4.2474,4.2475,4.2454,4.2452,4.245,4.2448,4.2499,4.2503,4.2506,4.2567,0,0,4.2518,4.252,0,0,0,0,0,0,0,0,4.2356,4.2363,4.2419,4.242,4.242,4.2455,4.2453,4.2506,4.2454,4.2441,4.2449,4.2447,4.2487,4.2492,4.2505,4.2569,4.2571,4.2518,4.2521,4.2522,4.2523,0,0,0,0,0,0,0,4.2353,4.2361,4.2443,4.242,4.2421,4.2416,4.2421,4.2463,4.2474,4.2442,4.244,4.2447,4.2487,4.2502,4.2506,4.2572,4.2518,4.2522,4.2524,4.2525,4.2691,4.2693,0,0,0,0,0,0,4.2349,4.2358,4.2441,4.2445,4.2383,4.2419,4.2425,4.2446,4.2473,4.2475,4.2448,4.2445,4.2496,4.2502,4.2508,4.2582,4.2522,4.2526,4.2528,4.2689,4.2692,4.2694,0,0,0,0,0,0,4.2347,4.2357,4.2439,4.2401,4.2411,4.2423,4.2447,4.2448,4.2462,4.2478,4.248,4.2461,4.2495,4.2503,4.2553,4.2584,4.2527,4.2531,4.2686,4.269,4.2693,4.273,0,0,0,0,0,0,4.2344,4.2356,4.2378,4.2402,4.2413,4.2483,4.2449,4.245,4.2469,4.2466,4.2491,4.2493,4.2494,4.2548,4.2557,4.2588,4.2534,4.2684,4.2688,4.2692,4.2726,4.2734,4.2741,0,0,0,0,0,4.234,4.2386,4.238,4.239,4.2442,4.2485,4.2491,4.2492,4.2472,4.2495,4.2505,4.2492,4.2579,4.2553,4.2563,4.2596,4.2682,4.2687,4.2691,4.2723,4.2733,4.2741,0,0,0,0,0,0,4.2365,4.2389,4.2382,4.2437,4.246,4.2481,4.251,4.2502,4.253,4.2526,4.2525,4.2531,4.2584,4.2595,4.2565,4.2657,4.2627,4.2635,4.2648,4.2657,4.2665,4.2661,4.2537,0,0,0,0,0,4.2378,4.241,4.2429,4.2477,4.2488,4.2498,4.2516,4.2515,4.2538,4.2547,4.2561,4.2583,4.2616,4.2637,4.2668,4.2728,4.2734,4.2756,4.2764,4.277,4.2776,4.2811,4.2822,4.271,4.271,4.271,0,0,4.2403,4.242,4.2441,4.2482,4.2499,4.2534,4.2505,4.2543,4.2569,4.2552,4.2601,4.2613,4.2638,4.2694,4.272,4.2705,4.2808,4.2776,4.278,4.2783,4.2817,4.2828,4.2837,4.2713,4.2712,4.2712,0,0,4.2467,4.2483,4.2525,4.2543,4.257,4.2576,4.2586,4.261,4.2617,4.2666,4.2655,4.2687,4.2742,4.2762,4.2779,4.2854,4.2844,4.2864,4.2903,4.2938,4.2947,4.2955,4.2983,4.2993,4.287,4.287,4.2871,0,4.2495,4.2547,4.2548,4.2587,4.2607,4.2594,4.2638,4.2656,4.2691,4.2705,4.2688,4.276,4.2776,4.2838,4.2857,4.287,4.2883,4.2861,4.2945,4.2953,4.2961,4.2988,4.2999,4.2873,4.2873,4.2872,4.2872,0,4.2582,4.2618,4.2649,4.2685,4.2708,4.2749,4.2757,4.278,4.2778,4.2787,4.2838,4.2858,4.2893,4.2908,4.2905,4.297,4.2961,4.2945,4.2915,4.2974,4.3,4.301,4.2876,4.2875,4.2875,4.2874,0,0,4.2662,4.2699,4.2711,4.2728,4.2758,4.2786,4.2828,4.2864,4.2885,4.291,4.2946,4.2995,4.2981,4.3001,4.3,4.3031,4.3092,4.3011,4.3012,4.3027,4.3168,4.318,4.3192,4.3086,4.3088,4.3089,4.3166,0,4.273,4.2803,4.2806,4.2874,4.2909,4.2899,4.2935,4.2958,4.2968,4.3,4.301,4.3046,4.3024,4.3036,4.3066,4.3078,4.312,4.3073,4.312,4.3122,4.3115,4.3206,4.3218,4.329,4.3176,4.3178,4.3179,0,4.2819,4.2848,4.2919,4.2947,4.2961,4.2994,4.3029,4.3059,4.3085,4.309,4.3114,4.311,4.3154,4.3123,4.3185,4.3153,4.3172,4.3182,4.3185,4.319,4.3154,4.3214,4.3313,4.3324,4.3195,4.3193,4.3192,0,4.2873,4.293,4.2981,4.2995,4.3028,4.3052,4.3066,4.3091,4.3113,4.3143,4.3158,4.3193,4.3212,4.324,4.3246,4.3223,4.3309,4.3278,4.3316,4.3316,4.3335,4.3333,4.3439,4.3346,4.3346,4.3345,4.3345,0,4.2949,4.2993,4.3006,4.3037,4.3087,4.3091,4.314,4.3153,4.3176,4.3211,4.3204,4.3236,4.3242,4.3277,4.3282,4.3334,4.3342,4.3349,4.335,4.335,4.3349,4.3363,4.3359,4.3348,4.3348,4.3347,4.3347,0,4.3018,4.3028,4.3083,4.311,4.3117,4.3153,4.3177,4.3208,4.3217,4.3261,4.3272,4.3287,4.3328,4.3337,4.3385,4.3388,4.3451,4.3446,4.3442,4.3442,4.348,4.3477,4.3599,4.3616,4.351,4.3511,4.3512,0,4.3066,4.31,4.3131,4.3154,4.3171,4.3207,4.323,4.3236,4.326,4.3295,4.3322,4.3362,4.3394,4.3459,4.3475,4.3512,4.351,4.355,4.3515,4.3515,4.3512,4.3511,4.3515,4.3557,4.3558,4.3559,4.356,0,4.3152,4.3156,4.3189,4.3226,4.3254,4.3282,4.331,4.3329,4.3339,4.3367,4.3409,4.3434,4.3484,4.3524,4.3562,4.3578,4.3571,4.3571,4.3582,4.3583,4.358,4.3584,4.3461,4.3568,4.3567,4.3566,4.3566,4.3566,4.3213,4.3244,4.3271,4.331,4.3331,4.3358,4.3389,4.3403,4.3438,4.3479,4.3481,4.3527,4.3555,4.3605,4.3624,4.3661,4.3648,4.3664,4.3668,4.3672,4.3677,4.3573,4.3667,4.3667,4.3667,4.3667,4.3667,0,4.33,4.3317,4.3353,4.3392,4.3423,4.3414,4.3445,4.3472,4.3512,4.3539,4.3572,4.3621,4.3661,4.3681,4.3721,4.3747,4.3745,4.3757,4.3756,4.376,4.3684,4.3671,4.3758,4.3758,4.3758,4.3758,4.3758,4.3758,4.3349,4.3401,4.3409,4.3473,4.349,4.3536,4.3554,4.3579,4.3601,4.3657,4.369,4.3703,4.3728,4.377,4.3807,4.3812,4.3827,4.3842,4.3845,4.3774,4.3765,4.3756,4.3744,4.3845,4.3845,4.3918,4.3919,4.3919]}]]